Weather History for Washington, GA

Change the Weather History Date:

Friday, February 8, 2013

  Actual Average (KDBN) Record (KDBN)
Temperature  
Mean Temperature 48 °F -  
Max Temperature 53 °F 57 °F 83 °F (1957)
Min Temperature 42 °F 32 °F 16 °F (1978)
Degree Days  
Heating Degree Days 18    
Moisture  
Dew Point 41 °F    
Average Humidity 86    
Maximum Humidity 100    
Minimum Humidity 57    
Precipitation  
Precipitation 0.00 in - - ()
Sea Level Pressure  
Sea Level Pressure 30.00 in    
Wind  
Wind Speed 5 mph (NW)    
Max Wind Speed 9 mph    
Max Gust Speed 17 mph    
Visibility 9 miles    
Events      
Averages and records for this station are not official NWS values.
T = Trace of Precipitation, MM = Missing Value Source: NWS Daily Summary

Daily Weather History Graph

Daily Weather History Graph

Search for Another Location

Airport:

Trip Planner

Search our weather history database for the weather conditions in past years. The results will help you decide how hot, cold, wet, or windy it might be!

Date:

Astronomy

Feb. 08, 2013 Rise Set
Actual Time 7:22 AM EST 6:09 PM EST
Civil Twilight 6:56 AM EST 6:35 PM EST
Nautical Twilight 6:26 AM EST 7:04 PM EST
Astronomical Twilight 5:57 AM EST 7:33 PM EST
Moon 5:47 AM EST (2/8) 4:42 PM EST (2/8)
Length of Visible Light 11h 38m
Length of Day
10h 47m
Waning Crescent, 3% of the Moon is Illuminated
Feb 8
Waning Crescent
Feb 10
New
Feb 17
First Quarter
Feb 25
Full
Mar 4
Last Quarter

Hourly Weather History & Observations

Time (EST) Temp. Windchill Dew Point Humidity Pressure Visibility Wind Dir Wind Speed Gust Speed Precip Events Conditions
12:15 AM 44.6 °F 39.7 °F 42.8 °F 93% 29.94 in 10.0 mi NNE 9.2 mph - N/A   Overcast
12:35 AM 42.8 °F 38.0 °F 42.8 °F 100% 29.92 in 10.0 mi NE 8.1 mph - N/A   Overcast
12:55 AM 42.8 °F 37.5 °F 42.8 °F 100% 29.91 in 10.0 mi NNE 9.2 mph 17.3 mph N/A   Overcast
1:15 AM 42.8 °F 39.3 °F 42.8 °F 100% 29.91 in 10.0 mi North 5.8 mph - N/A   Overcast
1:35 AM 42.8 °F 40.1 °F 42.8 °F 100% 29.91 in 10.0 mi North 4.6 mph - N/A   Overcast
1:55 AM 42.8 °F 41.1 °F 42.8 °F 100% 29.93 in 10.0 mi North 3.5 mph - N/A   Overcast
2:15 AM 42.8 °F 41.1 °F 42.8 °F 100% 29.94 in 10.0 mi North 3.5 mph - N/A   Overcast
2:35 AM 42.8 °F 40.1 °F 42.8 °F 100% 29.93 in 10.0 mi North 4.6 mph - N/A   Overcast
3:15 AM 42.8 °F 39.3 °F 42.8 °F 100% 29.92 in 10.0 mi North 5.8 mph - N/A   Overcast
3:35 AM 42.8 °F 40.1 °F 42.8 °F 100% 29.92 in 10.0 mi NNW 4.6 mph - N/A   Overcast
3:55 AM 42.8 °F 41.1 °F 42.8 °F 100% 29.92 in 10.0 mi North 3.5 mph - N/A   Overcast
4:35 AM 42.8 °F - 42.8 °F 100% 29.93 in 7.0 mi Calm Calm - N/A   Overcast
4:55 AM 42.8 °F - 42.8 °F 100% 29.93 in 10.0 mi Calm Calm - N/A   Overcast
5:15 AM 42.8 °F - 42.8 °F 100% 29.93 in 10.0 mi Calm Calm - N/A   Overcast
5:35 AM 42.8 °F 41.1 °F 42.8 °F 100% 29.94 in 10.0 mi North 3.5 mph - N/A   Overcast
5:55 AM 42.8 °F - 42.8 °F 100% 29.95 in 7.0 mi Calm Calm - N/A   Overcast
6:15 AM 42.8 °F - 42.8 °F 100% 29.95 in 7.0 mi Calm Calm - N/A   Overcast
6:35 AM 42.8 °F - 42.8 °F 100% 29.94 in 7.0 mi Calm Calm - N/A   Overcast
7:15 AM 42.8 °F - 42.8 °F 100% 29.97 in 7.0 mi Calm Calm - N/A   Overcast
7:35 AM 42.8 °F 41.1 °F 42.8 °F 100% 29.98 in 7.0 mi NNW 3.5 mph - N/A   Overcast
7:55 AM 42.8 °F - 42.8 °F 100% 29.99 in 7.0 mi Calm Calm - N/A   Overcast
8:15 AM 44.6 °F 43.1 °F 44.6 °F 100% 30.00 in 7.0 mi WNW 3.5 mph - N/A   Overcast
8:35 AM 44.6 °F 43.1 °F 42.8 °F 93% 30.01 in 7.0 mi NW 3.5 mph - N/A   Overcast
8:55 AM 44.6 °F - 42.8 °F 93% 30.01 in 10.0 mi Calm Calm - N/A   Mostly Cloudy
9:15 AM 44.6 °F - 42.8 °F 93% 29.99 in 10.0 mi Calm Calm - N/A   Scattered Clouds
9:35 AM 46.4 °F - 42.8 °F 87% 29.99 in 10.0 mi Calm Calm - N/A   Scattered Clouds
9:55 AM 46.4 °F - 42.8 °F 87% 29.99 in 10.0 mi Calm Calm - N/A   Scattered Clouds
10:15 AM 46.4 °F - 42.8 °F 87% 30.00 in 10.0 mi Calm Calm - N/A   Scattered Clouds
6:35 PM 53.6 °F - 44.6 °F 72% 30.01 in 10.0 mi West 6.9 mph - N/A   Clear
6:55 PM 53.6 °F - 46.4 °F 77% 30.01 in 10.0 mi West 6.9 mph - N/A   Clear
7:15 PM 53.6 °F - 48.2 °F 82% 30.02 in 10.0 mi West 8.1 mph - N/A   Clear
7:35 PM 53.6 °F - 48.2 °F 82% 30.03 in 10.0 mi West 5.8 mph - N/A   Clear
7:55 PM 51.8 °F - 46.4 °F 82% 30.04 in 10.0 mi West 4.6 mph - N/A   Clear
8:15 PM 51.8 °F - 46.4 °F 82% 30.04 in 10.0 mi West 5.8 mph - N/A   Clear
8:35 PM 51.8 °F - 42.8 °F 71% 30.05 in 10.0 mi WNW 4.6 mph - N/A   Clear
8:55 PM 50.0 °F - 41.0 °F 71% 30.06 in 10.0 mi NW 5.8 mph - N/A   Clear
9:15 PM 50.0 °F - 35.6 °F 58% 30.07 in 10.0 mi NW 5.8 mph - N/A   Clear
9:35 PM 48.2 °F - 33.8 °F 58% 30.07 in 10.0 mi NW 5.8 mph - N/A   Clear
9:55 PM 46.4 °F 43.5 °F 32.0 °F 57% 30.08 in 10.0 mi WNW 5.8 mph - N/A   Clear
10:15 PM 46.4 °F 42.4 °F 32.0 °F 57% 30.09 in 10.0 mi NW 8.1 mph - N/A   Clear
10:35 PM 46.4 °F 42.4 °F 32.0 °F 57% 30.09 in 10.0 mi NW 8.1 mph - N/A   Clear
10:55 PM 46.4 °F 42.4 °F 32.0 °F 57% 30.11 in 10.0 mi NW 8.1 mph - N/A   Clear
11:15 PM 44.6 °F 40.7 °F 32.0 °F 61% 30.11 in 10.0 mi NW 6.9 mph - N/A   Clear
11:35 PM 44.6 °F 41.4 °F 32.0 °F 61% 30.13 in 10.0 mi NW 5.8 mph - N/A   Clear
11:55 PM 42.8 °F 39.3 °F 32.0 °F 66% 30.13 in 10.0 mi NW 5.8 mph - N/A   Clear